,,,PA_Meas_PMT16A,,PR_Meas_QMR101_102,,RH_Meas_QMH101,,SR_Meas_QMS101,,TA_Meas_QMH101,,GenWind,,GenWind,
date,time,status,PA,status,PR,status,RH,status,SR,status,TA,status,DirAvg,status,SpdAvg,
2012-08-12, 06:58:05,VALID,1005.39,VALID,0,VALID,85.9851,VALID,140.766,VALID,25.4344,VALID,347,VALID,0.507813,
2012-08-12, 07:00:05,VALID,1005.42,VALID,0,VALID,85.2604,VALID,114.683,VALID,25.6292,VALID,349,VALID,0.654167,
2012-08-12, 07:44:05,VALID,1005.73,VALID,0,VALID,78.6385,VALID,122.1,VALID,26.9947,VALID,360,VALID,0.278516,
2012-08-12, 07:45:05,VALID,1005.74,VALID,0,VALID,79.5311,VALID,123.16,VALID,27.0142,VALID,360,VALID,0.458594,
2012-08-12, 07:46:05,VALID,1005.73,VALID,0,VALID,78.9818,VALID,122.834,VALID,27.0121,VALID,360,VALID,0.520703,
2012-08-12, 07:56:05,INVALID - VALUE NOT AVAILABLE,0,INVALID - VALUE NOT AVAILABLE,0,INVALID - VALUE NOT AVAILABLE,0,INVALID - VALUE NOT AVAILABLE,0,INVALID - VALUE NOT AVAILABLE,0,INVALID,360,INVALID,0,
2012-08-12, 08:32:05,VALID,1005.79,VALID,0,VALID,75.5641,VALID,122.1,VALID,27.3649,VALID,317,VALID,0.234766,
2012-08-12, 08:33:05,VALID,1005.75,VALID,0,VALID,74.2672,VALID,126.339,VALID,27.4449,VALID,310,VALID,0.2625,
2012-08-12, 08:34:05,VALID,1005.78,VALID,0,VALID,73.7789,VALID,131.474,VALID,27.4839,VALID,298,VALID,0.170703,
2012-08-12, 08:35:05,VALID,1005.78,VALID,0,VALID,74.3129,VALID,136.364,VALID,27.5598,VALID,298,VALID,0,
2012-08-12, 08:36:05,VALID,1005.78,VALID,0,VALID,74.4731,VALID,141.01,VALID,27.5987,VALID,298,VALID,0,
2012-08-12, 08:37:05,VALID,1005.76,VALID,0,VALID,73.756,VALID,145.33,VALID,27.6377,VALID,298,VALID,0,
2012-08-12, 08:38:05,VALID,1005.78,VALID,0,VALID,74.1298,VALID,148.835,VALID,27.7157,VALID,298,VALID,0,
2012-08-12, 08:39:05,VALID,1005.76,VALID,0,VALID,73.5424,VALID,151.933,VALID,27.7741,VALID,298,VALID,0,
2012-08-12, 08:40:05,VALID,1005.78,VALID,0,VALID,72.7261,VALID,154.785,VALID,27.8326,VALID,298,VALID,0.164844,
2012-08-12, 08:41:05,VALID,1005.75,VALID,0,VALID,73.1381,VALID,158.046,VALID,27.8521,VALID,298,VALID,0.296875,
2012-08-12, 08:42:05,VALID,1005.73,VALID,0,VALID,74.4579,VALID,162.61,VALID,27.8716,VALID,298,VALID,0.00546875,
2012-08-12, 08:43:05,VALID,1005.74,VALID,0,VALID,77.5399,VALID,168.397,VALID,27.9516,VALID,308,VALID,0.0769531,
2012-08-12, 08:44:05,VALID,1005.74,VALID,0,VALID,77.0822,VALID,176.059,VALID,27.93,VALID,330,VALID,0.154687,
2012-08-12, 08:45:05,VALID,1005.74,VALID,0,VALID,77.2348,VALID,185.188,VALID,27.93,VALID,330,VALID,0.0109375,
2012-08-12, 08:46:05,VALID,1005.74,VALID,0,VALID,78.2952,VALID,196.11,VALID,27.969,VALID,330,VALID,0.189844,
2012-08-12, 08:47:05,VALID,1005.72,VALID,0,VALID,78.3562,VALID,208.092,VALID,27.9885,VALID,330,VALID,0.400781,
2012-08-12, 08:48:05,VALID,1005.73,VALID,0,VALID,78.7758,VALID,220.074,VALID,27.93,VALID,330,VALID,0.301953,
2012-08-12, 08:49:05,VALID,1005.73,VALID,0,VALID,76.2964,VALID,231.567,VALID,27.9084,VALID,341,VALID,0.765625,
2012-08-12, 08:50:05,VALID,1005.77,VALID,0,VALID,75.3504,VALID,240.533,VALID,27.8694,VALID,348,VALID,0.821484,
2012-08-12, 08:51:05,VALID,1005.78,VALID,0,VALID,74.557,VALID,243.875,VALID,27.8889,VALID,350,VALID,0.794922,
2012-08-12, 08:52:05,VALID,1005.79,VALID,0,VALID,74.4731,VALID,240.451,VALID,27.9084,VALID,351,VALID,0.619531,
2012-08-12, 08:53:05,VALID,1005.82,VALID,0,VALID,74.9614,VALID,233.279,VALID,27.9279,VALID,351,VALID,0.338281,
2012-08-12, 08:54:05,VALID,1005.85,VALID,0,VALID,75.915,VALID,225.861,VALID,27.9864,VALID,351,VALID,0.234375,
2012-08-12, 08:55:05,VALID,1005.87,VALID,0,VALID,76.2735,VALID,222.764,VALID,28.0665,VALID,352,VALID,0.183594,
2012-08-12, 08:56:05,VALID,1005.91,VALID,0,VALID,76.922,VALID,225.698,VALID,28.1444,VALID,352,VALID,0.296094,
2012-08-12, 08:57:05,VALID,1005.91,VALID,0,VALID,74.4655,VALID,234.746,VALID,28.2419,VALID,352,VALID,0.669531,
2012-08-12, 08:58:05,VALID,1005.93,VALID,0,VALID,74.1222,VALID,245.994,VALID,28.2592,VALID,352,VALID,0.471875,
2012-08-12, 08:59:05,VALID,1005.96,VALID,0,VALID,74.1832,VALID,255.041,VALID,28.3393,VALID,352,VALID,0.191406,
2012-08-12, 09:00:05,VALID,1005.99,VALID,0,VALID,74.2214,VALID,258.383,VALID,28.4173,VALID,344,VALID,0.28125,
2012-08-12, 09:01:05,VALID,1005.97,VALID,0,VALID,73.428,VALID,253.656,VALID,28.5148,VALID,342,VALID,0.217578,
2012-08-12, 09:02:05,VALID,1006,VALID,0,VALID,74.969,VALID,239.473,VALID,28.5927,VALID,302,VALID,0.028125,
2012-08-12, 09:03:05,VALID,1006,VALID,0,VALID,72.7795,VALID,218.362,VALID,28.688,VALID,302,VALID,0.0929687,
2012-08-12, 09:04:05,VALID,1006,VALID,0,VALID,74.1909,VALID,196.273,VALID,28.8267,VALID,302,VALID,0.124609,
2012-08-12, 09:05:05,VALID,1005.98,VALID,0,VALID,73.3441,VALID,176.63,VALID,28.9046,VALID,280,VALID,0.297266,
2012-08-12, 09:06:05,VALID,1005.99,VALID,0,VALID,73.222,VALID,159.92,VALID,28.9241,VALID,260,VALID,0.270703,
2012-08-12, 09:07:05,VALID,1006,VALID,0,VALID,72.4973,VALID,147.042,VALID,28.9241,VALID,275,VALID,0.170312,
2012-08-12, 09:08:05,VALID,1005.99,VALID,0,VALID,72.1387,VALID,137.913,VALID,28.9631,VALID,256,VALID,0.410156,
2012-08-12, 09:09:05,VALID,1005.99,VALID,0,VALID,72.1082,VALID,132.207,VALID,28.9436,VALID,264,VALID,0.561719,
2012-08-12, 09:10:05,VALID,1005.98,VALID,0,VALID,71.2309,VALID,129.273,VALID,28.9436,VALID,256,VALID,0.935938,
2012-08-12, 09:11:05,VALID,1005.97,VALID,0,VALID,71.2003,VALID,128.377,VALID,28.8851,VALID,287,VALID,0.7625,
2012-08-12, 09:12:05,VALID,1005.96,VALID,0,VALID,70.9333,VALID,128.214,VALID,28.7682,VALID,279,VALID,1.21992,
2012-08-12, 09:13:05,VALID,1005.95,VALID,0,VALID,70.8036,VALID,127.724,VALID,28.6101,VALID,301,VALID,0.622656,
2012-08-12, 09:14:05,VALID,1005.97,VALID,0,VALID,71.9861,VALID,126.502,VALID,28.5342,VALID,282,VALID,0.350391,
2012-08-12, 09:15:05,VALID,1005.96,VALID,0,VALID,72.6422,VALID,124.627,VALID,28.4563,VALID,267,VALID,0.607422,
2012-08-12, 09:35:05,VALID,1005.98,VALID,0,VALID,75.4954,VALID,115.498,VALID,28.1855,VALID,215,VALID,0.635938,
2012-08-12, 09:36:05,VALID,1005.93,VALID,0,VALID,76.3956,VALID,120.878,VALID,28.166,VALID,215,VALID,0.358203,
2012-08-12, 09:37:05,VALID,1005.91,VALID,0,VALID,75.3581,VALID,125.931,VALID,28.1466,VALID,215,VALID,0.162109,
2012-08-12, 09:38:05,VALID,1005.91,VALID,0,VALID,76.6855,VALID,130.333,VALID,28.1054,VALID,215,VALID,0.173438,
2012-08-12, 09:39:05,VALID,1005.93,VALID,0,VALID,75.6785,VALID,133.675,VALID,28.1466,VALID,221,VALID,0.433594,
2012-08-12, 09:40:05,VALID,1005.95,VALID,0,VALID,75.1216,VALID,135.875,VALID,28.1271,VALID,236,VALID,0.156641,
2012-08-12, 09:41:05,VALID,1006,VALID,0,VALID,75.8006,VALID,137.261,VALID,28.1466,VALID,354,VALID,0.559375,
2012-08-12, 09:42:05,VALID,1005.98,VALID,0,VALID,74.2977,VALID,138.321,VALID,28.1271,VALID,322,VALID,0.285547,
2012-08-12, 09:43:05,VALID,1006.03,VALID,0,VALID,75.2131,VALID,139.706,VALID,28.1466,VALID,322,VALID,0.194922,
2012-08-12, 09:44:05,VALID,1006.05,VALID,0,VALID,75.2513,VALID,141.336,VALID,28.1639,VALID,325,VALID,0.409375,
2012-08-12, 09:45:05,VALID,1006.03,VALID,0,VALID,75.915,VALID,143.537,VALID,28.2029,VALID,325,VALID,0.201953,
2012-08-12, 09:46:05,VALID,1006.05,VALID,0,VALID,75.3504,VALID,146.145,VALID,28.2419,VALID,325,VALID,0,
2012-08-12, 09:47:05,VALID,1006.04,VALID,0,VALID,76.7542,VALID,149.08,VALID,28.2419,VALID,330,VALID,0,
2012-08-12, 09:48:05,VALID,1006.07,VALID,0,VALID,74.2366,VALID,151.362,VALID,28.2245,VALID,357,VALID,0,
2012-08-12, 09:49:05,VALID,1006.06,VALID,0,VALID,76.0142,VALID,153.318,VALID,28.2419,VALID,357,VALID,0,
2012-08-12, 09:50:05,VALID,1006.07,VALID,0,VALID,75.6175,VALID,155.111,VALID,28.2419,VALID,357,VALID,0,
2012-08-12, 09:51:05,VALID,1006.06,VALID,0,VALID,75.1521,VALID,157.149,VALID,28.2224,VALID,357,VALID,0,
2012-08-12, 09:52:05,VALID,1006.06,VALID,0,VALID,75.6404,VALID,159.92,VALID,28.2029,VALID,357,VALID,0,
2012-08-12, 09:53:05,VALID,1006.03,VALID,0,VALID,76.0752,VALID,163.425,VALID,28.1834,VALID,357,VALID,0,
2012-08-12, 09:54:05,VALID,1006.02,VALID,0,VALID,76.9373,VALID,167.664,VALID,28.2245,VALID,357,VALID,0,
2012-08-12, 09:55:05,VALID,1006.02,VALID,0,VALID,78.196,VALID,172.799,VALID,28.1834,VALID,357,VALID,0,
2012-08-12, 09:56:05,VALID,1005.97,VALID,0,VALID,77.8375,VALID,178.178,VALID,28.2224,VALID,357,VALID,0,
2012-08-12, 09:57:05,VALID,1005.98,VALID,0,VALID,77.8832,VALID,183.314,VALID,28.2029,VALID,357,VALID,0,
2012-08-12, 09:58:05,VALID,1005.94,VALID,0,VALID,76.7771,VALID,188.123,VALID,28.2224,VALID,357,VALID,0,
2012-08-12, 09:59:05,VALID,1005.9,VALID,0,VALID,75.6251,VALID,192.932,VALID,28.2614,VALID,357,VALID,0,
2012-08-12, 10:00:05,VALID,1005.9,VALID,0,VALID,75.976,VALID,197.659,VALID,28.3393,VALID,357,VALID,0,
2012-08-12, 10:01:05,VALID,1005.89,VALID,0,VALID,75.6404,VALID,202.142,VALID,28.3783,VALID,357,VALID,0,
2012-08-12, 10:02:05,VALID,1005.86,VALID,0,VALID,76.4261,VALID,207.277,VALID,28.3783,VALID,357,VALID,0,
2012-08-12, 10:03:05,VALID,1005.86,VALID,0,VALID,76.922,VALID,213.146,VALID,28.4368,VALID,357,VALID,0,
2012-08-12, 10:04:05,VALID,1005.86,VALID,0,VALID,75.3123,VALID,219.177,VALID,28.4563,VALID,357,VALID,0,
2012-08-12, 10:05:05,VALID,1005.83,VALID,0,VALID,76.6931,VALID,224.639,VALID,28.5364,VALID,357,VALID,0,
2012-08-12, 10:06:05,VALID,1005.83,VALID,0,VALID,75.3581,VALID,229.611,VALID,28.5537,VALID,358,VALID,0,
2012-08-12, 10:07:05,VALID,1005.8,VALID,0,VALID,74.8241,VALID,233.034,VALID,28.5927,VALID,12,VALID,0,
2012-08-12, 10:08:05,VALID,1005.8,VALID,0,VALID,76.3727,VALID,236.213,VALID,28.5927,VALID,17,VALID,0,
2012-08-12, 10:09:05,VALID,1005.8,VALID,0,VALID,76.1896,VALID,238.984,VALID,28.6122,VALID,348,VALID,0.694922,
2012-08-12, 10:10:05,VALID,1005.75,VALID,0,VALID,76.9067,VALID,240.614,VALID,28.6317,VALID,350,VALID,0.652734,
2012-08-12, 10:11:05,VALID,1005.76,VALID,0,VALID,75.0453,VALID,242.163,VALID,28.6317,VALID,352,VALID,0.885156,
2012-08-12, 10:12:05,VALID,1005.73,VALID,0,VALID,75.4344,VALID,245.586,VALID,28.6317,VALID,352,VALID,0.685547,
2012-08-12, 10:13:05,VALID,1005.73,VALID,0,VALID,75.4267,VALID,251.618,VALID,28.6317,VALID,352,VALID,0.130859,
2012-08-12, 10:14:05,VALID,1005.71,VALID,0,VALID,75.5641,VALID,260.176,VALID,28.6729,VALID,352,VALID,0.966406,
2012-08-12, 10:15:05,VALID,1005.72,VALID,0,VALID,74.2443,VALID,270.039,VALID,28.6512,VALID,337,VALID,1.00508,
2012-08-12, 10:16:05,VALID,1005.69,VALID,0,VALID,75.6556,VALID,280.065,VALID,28.6317,VALID,359,VALID,0.589063,
2012-08-12, 10:17:05,VALID,1005.68,VALID,0,VALID,74.908,VALID,289.846,VALID,28.6534,VALID,349,VALID,0.900391,
2012-08-12, 10:18:05,VALID,1005.69,VALID,0,VALID,76.655,VALID,298.649,VALID,28.6902,VALID,341,VALID,0.167187,
2012-08-12, 10:19:05,VALID,1005.69,VALID,0,VALID,72.2913,VALID,305.332,VALID,28.7487,VALID,287,VALID,1.14492,
2012-08-12, 10:20:05,VALID,1005.63,VALID,0,VALID,74.3892,VALID,309.326,VALID,28.7877,VALID,342,VALID,0.621875,
2012-08-12, 10:21:05,VALID,1005.64,VALID,0,VALID,73.8704,VALID,312.994,VALID,28.8483,VALID,346,VALID,0.604297,
2012-08-12, 10:22:05,VALID,1005.57,VALID,0,VALID,72.337,VALID,315.766,VALID,28.8678,VALID,352,VALID,0.938281,
2012-08-12, 10:23:05,VALID,1005.54,VALID,0,VALID,73.4737,VALID,312.831,VALID,28.8678,VALID,337,VALID,0.285937,
2012-08-12, 10:24:05,VALID,1005.53,VALID,0,VALID,74.0154,VALID,310.957,VALID,28.9285,VALID,337,VALID,0.268359,
2012-08-12, 10:25:05,VALID,1005.5,VALID,0,VALID,74.1222,VALID,311.201,VALID,28.9068,VALID,28,VALID,0.688281,
2012-08-12, 10:26:05,VALID,1005.47,VALID,0,VALID,72.6803,VALID,312.098,VALID,28.9068,VALID,24,VALID,0.132422,
2012-08-12, 10:27:05,VALID,1005.47,VALID,0,VALID,73.1686,VALID,312.261,VALID,29.0043,VALID,23,VALID,0.246484,
2012-08-12, 10:28:05,VALID,1005.48,VALID,0,VALID,71.9327,VALID,311.283,VALID,29.0628,VALID,307,VALID,0.28125,
2012-08-12, 10:29:05,VALID,1005.49,VALID,0,VALID,71.4216,VALID,308.593,VALID,29.1408,VALID,322,VALID,0.412109,
2012-08-12, 10:30:05,VALID,1005.53,VALID,0,VALID,72.2684,VALID,306.229,VALID,29.2578,VALID,221,VALID,0.215234,
2012-08-12, 10:31:05,VALID,1005.52,VALID,0,VALID,68.103,VALID,302.561,VALID,29.2968,VALID,227,VALID,1.71094,
2012-08-12, 10:32:05,VALID,1005.55,VALID,0,VALID,68.8583,VALID,297.752,VALID,29.0996,VALID,217,VALID,1.32109,
2012-08-12, 10:33:05,VALID,1005.58,VALID,0,VALID,70.9181,VALID,292.128,VALID,29.0043,VALID,209,VALID,0.782422,
2012-08-12, 10:34:05,VALID,1005.62,VALID,0,VALID,71.6199,VALID,285.526,VALID,29.0065,VALID,262,VALID,0.623047,
2012-08-12, 10:35:05,VALID,1005.58,VALID,0,VALID,72.6041,VALID,273.951,VALID,29.0845,VALID,263,VALID,0.148047,
2012-08-12, 10:36:05,VALID,1005.6,VALID,0,VALID,68.9727,VALID,256.753,VALID,29.1213,VALID,236,VALID,1.37188,
2012-08-12, 10:37:05,VALID,1005.56,VALID,0,VALID,71.6352,VALID,234.175,VALID,29.1018,VALID,229,VALID,0.4625,
2012-08-12, 10:38:05,VALID,1005.58,VALID,0,VALID,69.2931,VALID,205.158,VALID,29.0628,VALID,231,VALID,1.01797,
2012-08-12, 10:39:05,VALID,1005.54,VALID,0,VALID,69.8119,VALID,167.012,VALID,28.9848,VALID,211,VALID,0.135156,
2012-08-12, 10:40:05,VALID,1005.53,VALID,0,VALID,70.796,VALID,136.446,VALID,29.0043,VALID,214,VALID,0.708203,
2012-08-12, 10:51:05,VALID,1005.28,VALID,0,VALID,79.6913,VALID,147.776,VALID,27.6008,VALID,201,VALID,0.911719,
2012-08-12, 10:52:05,VALID,1005.27,VALID,0,VALID,80.3931,VALID,154.867,VALID,27.5618,VALID,250,VALID,1.15156,
2012-08-12, 10:53:05,VALID,1005.25,VALID,0,VALID,80.6754,VALID,159.676,VALID,27.5598,VALID,148,VALID,0.421484,
2012-08-12, 10:54:05,VALID,1005.24,VALID,0,VALID,79.9202,VALID,163.099,VALID,27.6182,VALID,213,VALID,0.551562,
2012-08-12, 10:55:05,VALID,1005.25,VALID,0,VALID,79.2259,VALID,165.219,VALID,27.7178,VALID,224,VALID,1.29805,
2012-08-12, 10:56:05,VALID,1005.23,VALID,0,VALID,79.1115,VALID,167.175,VALID,27.7372,VALID,190,VALID,0.480859,
2012-08-12, 10:57:05,VALID,1005.22,VALID,0,VALID,78.1503,VALID,169.865,VALID,27.7741,VALID,230,VALID,1.50156,
2012-08-12, 10:58:05,VALID,1005.23,VALID,0,VALID,77.7001,VALID,174.103,VALID,27.7546,VALID,223,VALID,1.1707,
2012-08-12, 10:59:05,VALID,1005.23,VALID,0,VALID,78.8521,VALID,181.52,VALID,27.7157,VALID,211,VALID,0.792578,
2012-08-12, 11:00:05,VALID,1005.25,VALID,0,VALID,78.2265,VALID,188.367,VALID,27.6767,VALID,206,VALID,1.07422,
2012-08-12, 11:01:05,VALID,1005.27,VALID,0,VALID,77.7764,VALID,191.872,VALID,27.6941,VALID,222,VALID,1.50859,
2012-08-12, 11:02:05,VALID,1005.31,VALID,0,VALID,78.8674,VALID,192.443,VALID,27.7157,VALID,205,VALID,0.360156,
2012-08-12, 11:03:05,VALID,1005.3,VALID,0,VALID,78.074,VALID,187.878,VALID,27.8131,VALID,205,VALID,0.155078,
2012-08-12, 11:04:05,VALID,1005.27,VALID,0,VALID,77.189,VALID,182.335,VALID,27.8911,VALID,264,VALID,0.190625,
2012-08-12, 11:05:05,VALID,1005.24,VALID,0,VALID,77.1585,VALID,181.194,VALID,27.9669,VALID,244,VALID,0.536719,
2012-08-12, 11:06:05,VALID,1005.21,VALID,0,VALID,77.0898,VALID,185.188,VALID,27.9885,VALID,166,VALID,0.350781,
2012-08-12, 11:07:05,VALID,1005.15,VALID,0,VALID,76.0599,VALID,191.057,VALID,28.0296,VALID,234,VALID,0.494531,
2012-08-12, 11:08:05,VALID,1005.12,VALID,0,VALID,76.8915,VALID,195.866,VALID,28.0296,VALID,266,VALID,0.599609,
2012-08-12, 11:09:05,VALID,1005.11,VALID,0,VALID,77.5171,VALID,198.719,VALID,28.1292,VALID,276,VALID,0.392578,
2012-08-12, 11:10:05,VALID,1005.14,VALID,0,VALID,77.128,VALID,199.045,VALID,28.1855,VALID,251,VALID,0.784375,
2012-08-12, 11:11:05,VALID,1005.09,VALID,0,VALID,77.5933,VALID,200.43,VALID,28.2656,VALID,269,VALID,0.547656,
2012-08-12, 11:12:05,VALID,1005.13,VALID,0,VALID,76.0676,VALID,202.55,VALID,28.2635,VALID,227,VALID,1.29062,
2012-08-12, 11:13:05,VALID,1005.13,VALID,0,VALID,76.716,VALID,209.315,VALID,28.244,VALID,266,VALID,0.357812,
2012-08-12, 11:14:05,VALID,1005.09,VALID,0,VALID,76.6702,VALID,218.607,VALID,28.244,VALID,204,VALID,0.128516,
2012-08-12, 11:15:05,VALID,1005.08,VALID,0,VALID,74.8317,VALID,226.432,VALID,28.283,VALID,277,VALID,1.07266,
2012-08-12, 11:16:05,VALID,1005.09,VALID,0,VALID,75.1826,VALID,231.73,VALID,28.3003,VALID,236,VALID,0.729688,
2012-08-12, 11:17:05,VALID,1005.03,VALID,0,VALID,75.3886,VALID,235.968,VALID,28.361,VALID,204,VALID,0.427734,
2012-08-12, 11:18:05,VALID,1005.01,VALID,0,VALID,75.3123,VALID,239.473,VALID,28.322,VALID,216,VALID,0.839844,
2012-08-12, 11:19:05,VALID,1005,VALID,0,VALID,76.7008,VALID,242.734,VALID,28.361,VALID,223,VALID,1.22734,
2012-08-12, 11:20:05,VALID,1005,VALID,0,VALID,74.5418,VALID,246.157,VALID,28.361,VALID,230,VALID,1.35312,
2012-08-12, 11:21:05,VALID,1004.98,VALID,0,VALID,73.3364,VALID,248.602,VALID,28.2614,VALID,219,VALID,1.91602,
2012-08-12, 11:22:05,VALID,1005,VALID,0,VALID,74.8393,VALID,250.721,VALID,28.166,VALID,220,VALID,0.761328,
2012-08-12, 11:23:05,VALID,1005,VALID,0,VALID,74.6562,VALID,252.678,VALID,28.0859,VALID,230,VALID,0.8375,
2012-08-12, 11:24:05,VALID,1004.98,VALID,0,VALID,75.4725,VALID,255.123,VALID,28.1054,VALID,246,VALID,0.835938,
2012-08-12, 11:25:05,VALID,1005.01,VALID,0,VALID,74.2977,VALID,257.079,VALID,28.205,VALID,226,VALID,0.902734,
2012-08-12, 11:26:05,VALID,1005.03,VALID,0,VALID,73.4127,VALID,257.65,VALID,28.205,VALID,248,VALID,0.883203,
2012-08-12, 11:27:05,VALID,1005.03,VALID,0,VALID,73.5653,VALID,256.672,VALID,28.1639,VALID,262,VALID,0.504687,
2012-08-12, 11:28:05,VALID,1005.04,VALID,0,VALID,74.4884,VALID,250.721,VALID,28.1639,VALID,203,VALID,0.879297,
2012-08-12, 11:29:05,VALID,1005.05,VALID,0,VALID,74.3053,VALID,238.658,VALID,28.1855,VALID,191,VALID,0.497656,
2012-08-12, 11:30:05,VALID,1005.07,VALID,0,VALID,75.503,VALID,228.225,VALID,28.2029,VALID,248,VALID,0.298047,
2012-08-12, 11:31:05,VALID,1005.05,VALID,0,VALID,73.8704,VALID,221.704,VALID,28.3025,VALID,237,VALID,0.992969,
2012-08-12, 11:32:05,VALID,1005.05,VALID,0,VALID,74.0001,VALID,217.221,VALID,28.2656,VALID,238,VALID,1.03633,
2012-08-12, 11:33:05,VALID,1005.04,VALID,0,VALID,75.0987,VALID,215.754,VALID,28.2419,VALID,236,VALID,0.250391,
2012-08-12, 11:34:05,VALID,1004.98,VALID,0,VALID,73.4661,VALID,220.808,VALID,28.2029,VALID,249,VALID,0.737109,
2012-08-12, 11:35:05,VALID,1004.94,VALID,0,VALID,74.702,VALID,229.611,VALID,28.1855,VALID,248,VALID,1.11211,
2012-08-12, 11:36:05,VALID,1004.9,VALID,0,VALID,74.9385,VALID,239.473,VALID,28.0665,VALID,236,VALID,1.0668,
2012-08-12, 11:37:05,VALID,1004.82,VALID,0,VALID,75.3962,VALID,250.069,VALID,28.0448,VALID,240,VALID,0.516406,
2012-08-12, 11:38:05,VALID,1004.78,VALID,0,VALID,73.2296,VALID,258.954,VALID,28.0859,VALID,284,VALID,1.37734,
2012-08-12, 11:39:05,VALID,1004.72,VALID,0,VALID,74.6181,VALID,262.866,VALID,28.0859,VALID,245,VALID,0.554688,
2012-08-12, 11:40:05,VALID,1004.72,VALID,0,VALID,74.2214,VALID,263.6,VALID,28.1444,VALID,230,VALID,0.709375,
2012-08-12, 11:41:05,VALID,1004.7,VALID,0,VALID,73.3364,VALID,262.133,VALID,28.1444,VALID,260,VALID,0.750391,
2012-08-12, 11:42:05,VALID,1004.7,VALID,0,VALID,72.7109,VALID,259.687,VALID,28.1444,VALID,272,VALID,0.573828,
2012-08-12, 11:43:05,VALID,1004.72,VALID,0,VALID,72.7719,VALID,257.079,VALID,28.2029,VALID,266,VALID,1.23477,
2012-08-12, 11:44:05,VALID,1004.73,VALID,0,VALID,73.8399,VALID,254.634,VALID,28.2419,VALID,264,VALID,0.387891,
2012-08-12, 11:45:05,VALID,1004.68,VALID,0,VALID,71.6199,VALID,253.085,VALID,28.3003,VALID,253,VALID,0.317969,
2012-08-12, 11:46:05,VALID,1004.69,VALID,0,VALID,71.8793,VALID,252.189,VALID,28.3783,VALID,257,VALID,0.572656,
2012-08-12, 11:47:05,VALID,1004.65,VALID,0,VALID,71.5131,VALID,251.21,VALID,28.4368,VALID,304,VALID,1.08516,
2012-08-12, 11:48:05,VALID,1004.64,VALID,0,VALID,73.2983,VALID,250.558,VALID,28.4758,VALID,216,VALID,1.23281,
2012-08-12, 11:49:05,VALID,1004.62,VALID,0,VALID,72.6193,VALID,249.906,VALID,28.3956,VALID,227,VALID,1.14453,
2012-08-12, 11:50:05,VALID,1004.59,VALID,0,VALID,73.5119,VALID,248.765,VALID,28.3198,VALID,240,VALID,0.586719,
2012-08-12, 11:51:05,VALID,1004.61,VALID,0,VALID,73.5272,VALID,247.38,VALID,28.3025,VALID,253,VALID,0.55,
2012-08-12, 11:52:05,VALID,1004.58,VALID,0,VALID,73.962,VALID,246.483,VALID,28.3415,VALID,287,VALID,0.305078,
2012-08-12, 11:53:05,VALID,1004.61,VALID,0,VALID,72.5125,VALID,246.238,VALID,28.4584,VALID,266,VALID,0.934375,
2012-08-12, 11:54:05,VALID,1004.6,VALID,0,VALID,72.0929,VALID,246.727,VALID,28.5559,VALID,269,VALID,0.288672,
2012-08-12, 11:55:05,VALID,1004.65,VALID,0,VALID,72.2226,VALID,247.461,VALID,28.6534,VALID,322,VALID,0.194531,
2012-08-12, 11:56:05,VALID,1004.61,VALID,0,VALID,72.1387,VALID,248.358,VALID,28.6534,VALID,1,VALID,1.22031,
2012-08-12, 11:57:05,VALID,1004.61,VALID,0,VALID,71.3911,VALID,249.091,VALID,28.5949,VALID,352,VALID,1.35078,
2012-08-12, 11:58:05,VALID,1004.63,VALID,0,VALID,71.4826,VALID,250.232,VALID,28.5754,VALID,307,VALID,0.518359,
2012-08-12, 11:59:05,VALID,1004.57,VALID,0,VALID,72.8482,VALID,251.373,VALID,28.6122,VALID,294,VALID,0.220313,
2012-08-12, 12:00:05,VALID,1004.53,VALID,0,VALID,72.009,VALID,251.944,VALID,28.6924,VALID,294,VALID,0.379297,
2012-08-12, 12:01:05,VALID,1004.52,VALID,0,VALID,71.8717,VALID,252.596,VALID,28.7704,VALID,294,VALID,0.308984,
2012-08-12, 12:02:05,VALID,1004.5,VALID,0,VALID,71.1851,VALID,252.759,VALID,28.7704,VALID,358,VALID,0.985937,
2012-08-12, 12:03:04,VALID,1004.46,VALID,0,VALID,72.276,VALID,253.248,VALID,28.6729,VALID,320,VALID,0.951172,
2012-08-12, 12:04:04,VALID,1004.43,VALID,0,VALID,71.7801,VALID,253.248,VALID,28.6339,VALID,302,VALID,0.675391,
2012-08-12, 12:05:04,VALID,1004.43,VALID,0,VALID,71.0783,VALID,253.004,VALID,28.6122,VALID,291,VALID,1.07813,
2012-08-12, 12:06:04,VALID,1004.43,VALID,0,VALID,71.3453,VALID,252.596,VALID,28.6339,VALID,300,VALID,0.775391,
2012-08-12, 12:07:04,VALID,1004.45,VALID,0,VALID,71.1012,VALID,252.107,VALID,28.5711,VALID,308,VALID,1.30195,
2012-08-12, 12:08:04,VALID,1004.43,VALID,0,VALID,71.4597,VALID,252.107,VALID,28.4953,VALID,303,VALID,0.946484,
2012-08-12, 12:09:04,VALID,1004.42,VALID,0,VALID,72.2684,VALID,252.026,VALID,28.4173,VALID,267,VALID,0.631641,
2012-08-12, 12:10:04,VALID,1004.4,VALID,0,VALID,71.9327,VALID,251.944,VALID,28.4368,VALID,194,VALID,0.480078,
2012-08-12, 12:11:04,VALID,1004.35,VALID,0,VALID,71.6428,VALID,252.352,VALID,28.4368,VALID,275,VALID,0.812109,
2012-08-12, 12:12:04,VALID,1004.32,VALID,0,VALID,72.337,VALID,252.189,VALID,28.4758,VALID,267,VALID,0.809375,
2012-08-12, 12:13:04,VALID,1004.32,VALID,0,VALID,72.482,VALID,251.618,VALID,28.5169,VALID,274,VALID,1.01641,
2012-08-12, 12:14:04,VALID,1004.31,VALID,0,VALID,73.161,VALID,250.803,VALID,28.4974,VALID,268,VALID,0.769922,
2012-08-12, 12:15:04,VALID,1004.33,VALID,0,VALID,72.8787,VALID,249.662,VALID,28.4758,VALID,285,VALID,1.13359,
2012-08-12, 12:16:04,VALID,1004.29,VALID,0,VALID,73.283,VALID,248.113,VALID,28.4368,VALID,258,VALID,0.691406,
2012-08-12, 12:17:04,VALID,1004.32,VALID,0,VALID,72.9245,VALID,246.727,VALID,28.4758,VALID,308,VALID,0.552734,
2012-08-12, 12:18:04,VALID,1004.31,VALID,0,VALID,72.7795,VALID,245.097,VALID,28.5364,VALID,314,VALID,1.12344,
2012-08-12, 12:19:04,VALID,1004.33,VALID,0,VALID,72.4515,VALID,243.712,VALID,28.4953,VALID,283,VALID,0.664063,
2012-08-12, 12:20:04,VALID,1004.32,VALID,0,VALID,73.1915,VALID,242.081,VALID,28.4953,VALID,332,VALID,0.446484,
2012-08-12, 12:21:04,VALID,1004.32,VALID,0,VALID,73.2525,VALID,240.696,VALID,28.4974,VALID,302,VALID,0.548047,
2012-08-12, 12:22:04,VALID,1004.35,VALID,0,VALID,73.5958,VALID,238.577,VALID,28.4953,VALID,245,VALID,0.850781,
2012-08-12, 12:23:04,VALID,1004.36,VALID,0,VALID,73.2754,VALID,236.213,VALID,28.5169,VALID,262,VALID,0.336719,
2012-08-12, 12:24:04,VALID,1004.38,VALID,0,VALID,72.8177,VALID,233.768,VALID,28.4974,VALID,262,VALID,0.0546875,
2012-08-12, 12:25:04,VALID,1004.4,VALID,0,VALID,72.7871,VALID,232.137,VALID,28.4758,VALID,260,VALID,0.212891,
2012-08-12, 12:26:04,VALID,1004.42,VALID,0,VALID,74.2824,VALID,231.322,VALID,28.5342,VALID,259,VALID,0.542578,
2012-08-12, 12:27:04,VALID,1004.42,VALID,0,VALID,73.817,VALID,230.507,VALID,28.6122,VALID,318,VALID,0.596875,
2012-08-12, 12:28:04,VALID,1004.41,VALID,0,VALID,73.283,VALID,229.774,VALID,28.5927,VALID,316,VALID,0.701172,